Weather History for Corlu, Turkey

Change the Weather History Date:

Wednesday, December 5, 2012

  Actual Average (LTBA) Record (LTBA)
Temperature  
Mean Temperature 42 °F -  
Max Temperature 51 °F 52 °F 68 °F (2010)
Min Temperature 33 °F 43 °F 37 °F (2003)
Degree Days  
Heating Degree Days 23    
Moisture  
Dew Point 39 °F    
Average Humidity 81    
Maximum Humidity 100    
Minimum Humidity 62    
Precipitation  
Precipitation 0.00 in - - ()
Sea Level Pressure  
Sea Level Pressure 29.67 in    
Wind  
Wind Speed 7 mph ()    
Max Wind Speed 18 mph    
Max Gust Speed -    
Visibility 5.9 miles    
Events Rain , Thunderstorm    
Averages and records for this station are not official NWS values.
T = Trace of Precipitation, MM = Missing Value Source: Averaged Metar Reports

Daily Weather History Graph

Daily Weather History Graph

Search for Another Location

Airport:

Trip Planner

Search our weather history database for the weather conditions in past years. The results will help you decide how hot, cold, wet, or windy it might be!

Date:

Astronomy

Dec. 05, 2012 Rise Set
Actual Time 7:18 AM EET 4:39 PM EET
Civil Twilight 6:47 AM EET 5:10 PM EET
Nautical Twilight 6:13 AM EET 5:44 PM EET
Astronomical Twilight 5:39 AM EET 6:18 PM EET
Moon 11:11 PM EET (12/5) 11:30 AM EET (12/5)
Length of Visible Light 10h 22m
Length of Day
9h 21m
Waning Gibbous, 63% of the Moon is Illuminated
Dec 5
Waning Gibbous
Dec 6
Last Quarter
Dec 13
New
Dec 20
First Quarter
Dec 28
Full

Hourly Weather History & Observations

Time (EET) Temp. Windchill Dew Point Humidity Pressure Visibility Wind Dir Wind Speed Gust Speed Precip Events Conditions
12:20 AM 33.8 °F - 32.0 °F 93% 29.83 in - Variable 1.2 mph - N/A   Clear
12:50 AM 33.8 °F 30.8 °F 32.0 °F 93% 29.83 in - SW 3.5 mph - N/A   Clear
1:20 AM 35.6 °F 31.7 °F 33.8 °F 93% 29.83 in - South 4.6 mph - N/A   Clear
1:50 AM 37.4 °F 32.8 °F 35.6 °F 93% 29.80 in - South 5.8 mph - N/A   Clear
2:20 AM 37.4 °F 33.8 °F 33.8 °F 87% 29.80 in - South 4.6 mph - N/A   Clear
2:50 AM 37.4 °F 34.9 °F 33.8 °F 87% 29.80 in - SE 3.5 mph - N/A   Clear
3:20 AM 37.4 °F 32.8 °F 33.8 °F 87% 29.80 in - SSE 5.8 mph - N/A   Clear
3:50 AM 37.4 °F 32.1 °F 35.6 °F 93% 29.77 in - SSE 6.9 mph - N/A   Clear
4:20 AM 39.2 °F 35.9 °F 35.6 °F 87% 29.77 in - South 4.6 mph - N/A   Clear
4:50 AM 39.2 °F 35.9 °F 35.6 °F 87% 29.77 in - South 4.6 mph - N/A   Clear
5:20 AM 39.2 °F 35.9 °F 35.6 °F 87% 29.77 in - SSE 4.6 mph - N/A   Clear
5:50 AM 37.4 °F 32.8 °F 35.6 °F 93% 29.77 in - SSE 5.8 mph - N/A   Clear
6:20 AM 39.2 °F 34.2 °F 35.6 °F 87% 29.74 in - SSE 6.9 mph - N/A   Clear
6:50 AM 39.2 °F 34.2 °F 35.6 °F 87% 29.74 in - South 6.9 mph - N/A   Clear
7:20 AM 39.2 °F 33.6 °F 37.4 °F 93% 29.74 in - South 8.1 mph - N/A   Clear
7:50 AM 39.2 °F 35.9 °F 35.6 °F 87% 29.74 in - South 4.6 mph - N/A   Clear
8:20 AM 41.0 °F 36.4 °F 37.4 °F 87% 29.74 in - South 6.9 mph - N/A   Clear
8:50 AM 44.6 °F 39.7 °F 39.2 °F 81% 29.74 in 6.2 mi South 9.2 mph - N/A   Scattered Clouds
9:50 AM 46.4 °F 41.9 °F 41.0 °F 81% 29.71 in 6.2 mi SSE 9.2 mph - N/A   Scattered Clouds
10:20 AM 48.2 °F - 41.0 °F 76% 29.71 in 6.2 mi South 10.4 mph - N/A   Scattered Clouds
10:50 AM 48.2 °F - 39.2 °F 71% 29.68 in 6.2 mi SSE 12.7 mph - N/A   Mostly Cloudy
11:20 AM 48.2 °F - 39.2 °F 71% 29.68 in 6.2 mi South 13.8 mph - N/A   Scattered Clouds
11:50 AM 50.0 °F - 39.2 °F 66% 29.68 in 6.2 mi South 12.7 mph - N/A   Mostly Cloudy
12:20 PM 50.0 °F - 41.0 °F 71% 29.65 in 6.2 mi South 13.8 mph - N/A   Mostly Cloudy
12:50 PM 50.0 °F - 39.2 °F 66% 29.65 in 6.2 mi South 13.8 mph - N/A   Mostly Cloudy
1:20 PM 51.8 °F - 41.0 °F 67% 29.65 in 6.2 mi South 10.4 mph - N/A   Mostly Cloudy
1:50 PM 51.8 °F - 41.0 °F 67% 29.62 in 6.2 mi South 13.8 mph - N/A   Mostly Cloudy
2:20 PM 50.0 °F - 41.0 °F 71% 29.62 in 6.2 mi South 10.4 mph - N/A   Mostly Cloudy
2:50 PM 50.0 °F - 37.4 °F 62% 29.62 in 6.2 mi South 15.0 mph - N/A   Mostly Cloudy
4:50 PM 48.2 °F - 39.2 °F 71% 29.59 in 6.2 mi SE 9.2 mph - N/A   Mostly Cloudy
5:20 PM 48.2 °F - 39.2 °F 71% 29.56 in 6.2 mi East 6.9 mph - N/A   Mostly Cloudy
5:50 PM 48.2 °F - 41.0 °F 76% 29.56 in 6.2 mi SSE 9.2 mph - N/A   Mostly Cloudy
6:20 PM 50.0 °F - 41.0 °F 71% 29.56 in 6.2 mi SSE 12.7 mph - N/A   Scattered Clouds
6:50 PM 50.0 °F - 41.0 °F 71% 29.56 in 6.2 mi SSE 11.5 mph - N/A   Mostly Cloudy
7:20 PM 51.8 °F - 41.0 °F 67% 29.56 in 6.2 mi South 12.7 mph - N/A   Mostly Cloudy
7:50 PM 51.8 °F - 41.0 °F 67% 29.53 in 6.2 mi Variable 5.8 mph - N/A   Mostly Cloudy
8:20 PM 51.8 °F - 41.0 °F 67% 29.53 in 6.2 mi South 10.4 mph - N/A   Mostly Cloudy
8:50 PM 51.8 °F - 41.0 °F 67% 29.53 in 6.2 mi SSE 18.4 mph - N/A   Mostly Cloudy
9:20 PM 48.2 °F - 44.6 °F 87% 29.53 in 5.0 mi South 13.8 mph - N/A Rain , Thunderstorm Thunderstorms and Rain
9:50 PM 46.4 °F 42.9 °F 44.6 °F 93% 29.53 in 5.0 mi South 6.9 mph - N/A Rain , Thunderstorm Thunderstorms and Rain
10:20 PM 46.4 °F 42.4 °F 46.4 °F 100% 29.53 in 5.0 mi South 8.1 mph - N/A Rain , Thunderstorm Thunderstorms and Rain
10:50 PM 46.4 °F 41.1 °F 46.4 °F 100% 29.53 in 5.0 mi South 11.5 mph - N/A Rain , Thunderstorm Thunderstorms and Rain
11:20 PM 46.4 °F 40.1 °F 46.4 °F 100% 29.50 in 5.0 mi South 15.0 mph - N/A Rain , Thunderstorm Thunderstorms and Rain
11:50 PM 46.4 °F 40.4 °F 46.4 °F 100% 29.50 in 5.0 mi SSE 13.8 mph - N/A Rain Rain Showers